Weather History for Ft. Stewart, GA

Change the Weather History Date:

Tuesday, December 23, 2014

  Actual Average Record
Temperature  
Mean Temperature 55 °F -  
Max Temperature 59 °F 62 °F 80 °F (1990)
Min Temperature 51 °F 41 °F 16 °F (1989)
Degree Days  
Heating Degree Days 10    
Growing Degree Days 5 (Base 50)    
Moisture  
Dew Point 55 °F    
Average Humidity 98    
Maximum Humidity 100    
Minimum Humidity 94    
Precipitation  
Precipitation 0.52 in - - ()
Sea Level Pressure  
Sea Level Pressure 29.93 in    
Wind  
Wind Speed 2 mph (NNE)    
Max Wind Speed 9 mph    
Max Gust Speed -    
Visibility 4 miles    
Events Fog , Rain    
Averages and records for this station are not official NWS values.
T = Trace of Precipitation, MM = Missing Value Source: NWS Daily Summary

Daily Weather History Graph

Daily Weather History Graph

Search for Another Location

Airport:

Trip Planner

Search our weather history database for the weather conditions in past years. The results will help you decide how hot, cold, wet, or windy it might be!

Date:

Astronomy

Dec. 23, 2014 Rise Set
Actual Time 7:23 AM EST 5:27 PM EST
Civil Twilight 6:56 AM EST 5:54 PM EST
Nautical Twilight 6:25 AM EST 6:24 PM EST
Astronomical Twilight 5:56 AM EST 6:54 PM EST
Moon 8:33 AM EST (12/23) 7:33 PM EST (12/23)
Length of Visible Light 10h 57m
Length of Day
10h 03m
Waxing Crescent, 4% of the Moon is Illuminated
Dec 23
Waxing Crescent
Dec 28
First Quarter
Jan 4
Full
Jan 13
Last Quarter
Jan 20
New

Hourly Weather History & Observations

Time (EST) Temp. Dew Point Humidity Pressure Visibility Wind Dir Wind Speed Gust Speed Precip Events Conditions
12:53 AM 51.8 °F 50.0 °F 94% 29.93 in 1.0 mi Calm Calm - N/A   Mist
12:58 AM 51.8 °F 50.7 °F 96% 29.94 in 1.0 mi Calm Calm - N/A   Mist
1:03 AM 51.8 °F 50.0 °F 94% 29.93 in 1.2 mi Calm Calm - N/A   Overcast
1:28 AM 51.8 °F 50.0 °F 94% 29.95 in 1.0 mi Calm Calm - N/A   Mist
1:33 AM 51.8 °F 50.0 °F 94% 29.95 in 0.8 mi Calm Calm - N/A   Mist
1:58 AM 52.2 °F 51.1 °F 96% 29.96 in 0.8 mi North 4.6 mph - N/A   Mist
2:58 AM 52.2 °F 51.3 °F 97% 29.95 in 0.8 mi North 4.6 mph - N/A   Mist
3:58 AM 52.0 °F 51.1 °F 97% 29.94 in 0.5 mi NE 3.5 mph - N/A Fog Fog
4:58 AM 52.0 °F 51.1 °F 97% 29.93 in 0.5 mi North 3.5 mph - N/A Fog Fog
5:58 AM 52.0 °F 51.1 °F 97% 29.95 in 0.5 mi ENE 3.5 mph - N/A Fog Fog
6:38 AM 51.8 °F 51.8 °F 100% 29.95 in 1.0 mi Variable 1.2 mph - N/A   Mist
6:48 AM 51.8 °F 51.8 °F 100% 29.94 in 0.8 mi ENE 3.5 mph - N/A   Mist
6:58 AM 52.2 °F 51.3 °F 97% 29.96 in 0.8 mi NE 2.3 mph - N/A   Mist
7:58 AM 52.9 °F 52.0 °F 97% 29.96 in 0.2 mi Calm Calm - N/A Fog Fog
8:41 AM 53.6 °F 51.8 °F 94% 29.96 in 0.2 mi Calm Calm - N/A Fog , Rain Light Rain
8:58 AM 53.1 °F 52.2 °F 97% 29.97 in 0.2 mi Calm Calm - 0.00 in Fog , Rain Light Rain
9:15 AM 53.6 °F 51.8 °F 94% 29.97 in 0.2 mi NNW 4.6 mph - N/A Fog Fog
9:18 AM 53.6 °F 51.8 °F 94% 29.97 in 0.5 mi NNW 2.3 mph - N/A Fog , Rain Light Rain
9:23 AM 53.6 °F 51.8 °F 94% 29.96 in 0.5 mi Calm Calm - N/A Fog , Rain Light Rain
9:33 AM 53.6 °F 51.8 °F 94% 29.98 in 0.8 mi Calm Calm - N/A   Mist
9:38 AM 53.6 °F 51.8 °F 94% 29.98 in 1.5 mi Calm Calm - N/A   Overcast
9:43 AM 53.6 °F 51.8 °F 94% 29.98 in 2.5 mi Calm Calm - N/A   Overcast
9:48 AM 53.6 °F 51.8 °F 94% 29.98 in 4.0 mi Calm Calm - N/A   Overcast
9:58 AM 53.4 °F 52.7 °F 97% 30.00 in 6.0 mi Calm Calm - 0.01 in   Overcast
10:58 AM 54.9 °F 54.0 °F 97% 30.01 in 9.0 mi North 2.3 mph - N/A   Overcast
11:34 AM 55.4 °F 55.4 °F 100% 29.99 in 5.0 mi Calm Calm - N/A   Light Drizzle
11:43 AM 55.4 °F 55.4 °F 100% 29.98 in 4.0 mi NE 4.6 mph - N/A   Overcast
11:53 AM 55.4 °F 55.4 °F 100% 29.97 in 2.0 mi NNE 4.6 mph - N/A   Overcast
11:58 AM 55.8 °F 55.2 °F 98% 29.98 in 2.0 mi NNE 4.6 mph - 0.00 in   Overcast
12:03 PM 55.4 °F 55.4 °F 100% 29.97 in 1.5 mi NE 4.6 mph - N/A   Overcast
12:08 PM 55.4 °F 55.4 °F 100% 29.96 in 1.2 mi NE 3.5 mph - N/A   Overcast
12:13 PM 55.4 °F 55.4 °F 100% 29.97 in 1.0 mi NNE 4.6 mph - N/A   Mist
12:18 PM 55.4 °F 55.4 °F 100% 29.96 in 1.2 mi NNE 4.6 mph - N/A   Overcast
12:28 PM 57.2 °F 55.4 °F 94% 29.95 in 0.8 mi ENE 5.8 mph - N/A   Mist
12:31 PM 57.2 °F 55.4 °F 94% 29.95 in 0.5 mi NE 5.8 mph - N/A Fog , Rain Light Rain
12:44 PM 57.2 °F 55.4 °F 94% 29.94 in 0.5 mi East 4.6 mph - N/A Fog Fog
12:49 PM 57.2 °F 55.4 °F 94% 29.93 in 0.5 mi ENE 4.6 mph - N/A Fog Fog
12:58 PM 56.5 °F 55.9 °F 98% 29.94 in 0.5 mi NE 4.6 mph - 0.00 in Fog Fog
1:28 PM 57.2 °F 57.2 °F 100% 29.92 in 0.5 mi East 4.6 mph - N/A Fog Fog
1:38 PM 57.2 °F 57.2 °F 100% 29.91 in 0.5 mi East 4.6 mph - N/A Fog Fog
1:44 PM 57.2 °F 57.2 °F 100% 29.93 in 0.5 mi Calm Calm - N/A Fog , Rain Light Rain
1:58 PM 57.2 °F 56.7 °F 98% 29.92 in 0.2 mi ENE 6.9 mph - 0.00 in Fog , Rain Light Rain
2:11 PM 57.2 °F 57.2 °F 100% 29.91 in 0.5 mi ENE 4.6 mph - N/A Fog Fog
2:47 PM 57.2 °F 57.2 °F 100% 29.91 in 0.5 mi NNE 3.5 mph - N/A Fog , Rain Light Rain
2:52 PM 57.2 °F 57.2 °F 100% 29.90 in 0.5 mi NNE 4.6 mph - N/A Fog , Rain Light Rain
2:58 PM 57.6 °F 57.0 °F 98% 29.92 in 0.5 mi NNE 3.5 mph - 0.00 in Fog , Rain Light Rain
3:18 PM 57.2 °F 57.2 °F 100% 29.94 in 0.5 mi Variable 1.2 mph - N/A Fog , Rain Heavy Rain
3:23 PM 57.2 °F 57.2 °F 100% 29.96 in 0.8 mi SW 8.1 mph - N/A Rain Heavy Rain
3:28 PM 57.2 °F 57.2 °F 100% 29.96 in 1.5 mi SSW 2.3 mph - N/A Rain Heavy Rain
3:38 PM 57.2 °F 57.2 °F 100% 29.97 in 2.5 mi West 9.2 mph - N/A Rain Heavy Rain
3:43 PM 57.2 °F 57.2 °F 100% 29.96 in 4.0 mi WNW 8.1 mph - N/A Rain Heavy Rain
3:53 PM 57.2 °F 57.2 °F 100% 29.95 in 8.0 mi NW 8.1 mph - N/A Rain Rain
3:58 PM 57.4 °F 56.8 °F 98% 29.96 in 9.0 mi NNW 5.8 mph - 0.33 in Rain Rain
4:03 PM 57.2 °F 57.2 °F 100% 29.94 in 10.0 mi NNW 5.8 mph - N/A Rain Light Rain
4:53 PM 57.2 °F 55.4 °F 94% 29.95 in 10.0 mi Calm Calm - N/A Rain Light Rain
4:58 PM 57.2 °F 55.4 °F 94% 29.96 in 8.0 mi Calm Calm - 0.04 in Rain Light Rain
5:03 PM 57.2 °F 55.4 °F 94% 29.95 in 8.0 mi NNW 4.6 mph - N/A Rain Rain
5:33 PM 57.2 °F 55.4 °F 94% 29.93 in 10.0 mi NE 3.5 mph - N/A Rain Light Rain
5:38 PM 57.2 °F 55.4 °F 94% 29.92 in 10.0 mi NE 5.8 mph - N/A Rain Light Rain
5:48 PM 57.2 °F 55.4 °F 94% 29.92 in 10.0 mi Calm Calm - N/A Rain Light Rain
5:53 PM 57.2 °F 57.2 °F 100% 29.92 in 10.0 mi NNE 4.6 mph - N/A Rain Light Rain
5:58 PM 57.0 °F 56.5 °F 98% 29.94 in 10.0 mi North 4.6 mph - 0.07 in Rain Rain
6:03 PM 57.2 °F 55.4 °F 94% 29.92 in 10.0 mi North 4.6 mph - N/A Rain Light Rain
6:23 PM 57.2 °F 57.2 °F 100% 29.93 in 10.0 mi NE 4.6 mph - N/A Rain Light Rain
6:58 PM 57.6 °F 57.0 °F 98% 29.92 in 10.0 mi North 3.5 mph - 0.03 in Rain Light Rain
6:59 PM 57.2 °F 57.2 °F 100% 29.91 in 10.0 mi North 2.3 mph - N/A   Overcast
7:25 PM 57.2 °F 57.2 °F 100% 29.90 in 10.0 mi ENE 5.8 mph - N/A Rain Light Rain
7:33 PM 57.2 °F 57.2 °F 100% 29.90 in 10.0 mi ENE 5.8 mph - N/A   Overcast
7:48 PM 57.2 °F 57.2 °F 100% 29.89 in 10.0 mi ENE 5.8 mph - N/A   Overcast
7:58 PM 57.9 °F 57.4 °F 98% 29.91 in 10.0 mi NE 2.3 mph - 0.01 in   Overcast
8:14 PM 57.2 °F 57.2 °F 100% 29.90 in 10.0 mi Calm Calm - N/A Rain Light Rain
8:58 PM 58.1 °F 57.4 °F 97% 29.91 in 10.0 mi Calm Calm - 0.01 in   Light Drizzle
9:39 PM 59.0 °F 57.2 °F 94% 29.90 in 10.0 mi Calm Calm - N/A   Overcast
9:49 PM 59.0 °F 57.2 °F 94% 29.90 in 10.0 mi Calm Calm - N/A   Light Drizzle
9:58 PM 58.1 °F 57.6 °F 98% 29.91 in 10.0 mi NW 4.6 mph - 0.01 in   Light Drizzle
10:08 PM 57.2 °F 57.2 °F 100% 29.89 in 8.0 mi NNE 5.8 mph - N/A   Light Drizzle
10:18 PM 57.2 °F 57.2 °F 100% 29.88 in 4.0 mi NE 4.6 mph - N/A   Light Drizzle
10:19 PM 57.2 °F 57.2 °F 100% 29.88 in 4.0 mi NE 5.8 mph - N/A   Overcast
10:21 PM 57.2 °F 57.2 °F 100% 29.89 in 3.0 mi NE 4.6 mph - N/A   Light Drizzle
10:38 PM 57.2 °F 57.2 °F 100% 29.88 in 3.0 mi NE 2.3 mph - N/A   Overcast
10:49 PM 57.2 °F 57.2 °F 100% 29.87 in 4.0 mi NNE 1.2 mph - N/A   Light Drizzle
10:58 PM 57.7 °F 57.0 °F 97% 29.89 in 4.0 mi Calm Calm - 0.00 in Rain Light Rain
11:23 PM 57.2 °F 57.2 °F 100% 29.86 in 2.5 mi NE 4.6 mph - N/A Rain Light Rain
11:24 PM 57.2 °F 57.2 °F 100% 29.85 in 2.5 mi NE 4.6 mph - N/A   Overcast
11:41 PM 57.2 °F 57.2 °F 100% 29.85 in 2.5 mi NE 3.5 mph - N/A   Light Drizzle
11:55 PM 57.2 °F 57.2 °F 100% 29.85 in 1.8 mi Calm Calm - N/A   Overcast
11:58 PM 57.2 °F 57.2 °F 100% 29.86 in 1.8 mi Calm Calm - 0.01 in   Overcast